[[{"header":{"parameterUnit":"m.s-1","parameterCategory":1,"la1":30.2991,"la2":30.254,"lo1":-89.0895,"lo2":-89.0444,"dy":0.0017,"dx":0.0017,"nx":28,"ny":28,"refTime":"2024-05-12T03:00:00:Z","depth":0,"parameterNumber":2,"parameterNumberName":"U-component_of_WINDS"},"data":[0,0,0,0,0,0,0,0,0,0,0,0,0,0,0,0,0,0,0,0,0,0,0,0,0,0,0,0,0,0,0,0,0,0,0,0,0,0,0,0,0,0,0,0,0,0,0,0,0,0,0,0,0,0,0,0,0,0,-4.7116,-4.7117,0,-4.7224,-4.7225,-4.7227,-4.7198,-4.7196,-4.7194,-4.7192,-4.7301,-4.7305,-4.731,0,0,0,0,0,0,0,0,0,0,0,0,0,-4.6883,-4.6887,-4.7116,-4.7117,-4.7118,-4.7224,-4.7225,-4.7227,-4.7198,-4.7196,-4.7193,-4.7191,-4.7299,-4.7305,-4.7311,0,0,0,0,0,0,0,0,0,0,0,0,0,-4.6987,-4.6889,-4.7115,-4.7117,-4.7118,-4.7224,-4.7225,-4.7227,-4.7199,-4.7196,-4.7192,-4.7189,-4.7297,-4.7304,-4.7312,-4.7422,0,0,-4.7334,-4.7337,0,0,0,0,0,0,0,0,-4.6981,-4.6995,-4.7115,-4.7117,-4.7119,-4.7194,-4.7183,-4.7292,-4.72,-4.7168,-4.7192,-4.7188,-4.7268,-4.7277,-4.7305,-4.7427,-4.7431,-4.7335,-4.7339,-4.7342,-4.7344,0,0,0,0,0,0,0,-4.6974,-4.699,-4.7158,-4.7117,-4.7119,-4.7112,-4.7123,-4.7204,-4.7235,-4.7171,-4.7169,-4.7182,-4.7268,-4.7298,-4.7307,-4.7433,-4.7335,-4.7341,-4.7346,-4.7349,-4.765,-4.7653,0,0,0,0,0,0,-4.6965,-4.6985,-4.7155,-4.7162,-4.704,-4.7119,-4.7131,-4.7173,-4.7234,-4.724,-4.7185,-4.718,-4.7287,-4.7298,-4.7311,-4.7442,-4.7342,-4.7349,-4.7353,-4.7646,-4.765,-4.7654,0,0,0,0,0,0,-4.6961,-4.6981,-4.7151,-4.7073,-4.7094,-4.7126,-4.7173,-4.7177,-4.7206,-4.7244,-4.725,-4.7209,-4.7285,-4.73,-4.7394,-4.7445,-4.7353,-4.7359,-4.7642,-4.7647,-4.7652,-4.7706,0,0,0,0,0,0,-4.6954,-4.6979,-4.7022,-4.7074,-4.7098,-4.7233,-4.7177,-4.7181,-4.722,-4.7215,-4.7269,-4.7275,-4.7283,-4.7383,-4.7401,-4.7454,-4.7365,-4.7637,-4.7644,-4.7651,-4.77,-4.7713,-4.7724,0,0,0,0,0,-4.6946,-4.7032,-4.7024,-4.7045,-4.7152,-4.7236,-4.7249,-4.7258,-4.7224,-4.7266,-4.7291,-4.7273,-4.7438,-4.7393,-4.7413,-4.7469,-4.7634,-4.7642,-4.765,-4.7694,-4.771,-4.7723,0,0,0,0,0,0,-4.6985,-4.7039,-4.703,-4.7137,-4.7182,-4.7231,-4.7284,-4.7274,-4.733,-4.7323,-4.7331,-4.7343,-4.7439,-4.7464,-4.7413,-4.7578,-4.7531,-4.7543,-4.7558,-4.7573,-4.7584,-4.7575,-4.7371,0,0,0,0,0,-4.7006,-4.707,-4.7114,-4.7204,-4.7227,-4.7252,-4.7289,-4.7292,-4.7338,-4.7357,-4.7388,-4.7434,-4.7496,-4.7536,-4.7595,-4.7705,-4.7715,-4.7753,-4.7765,-4.7774,-4.7784,-4.7842,-4.7858,-4.7681,-4.7681,-4.7681,0,0,-4.705,-4.7087,-4.7127,-4.7212,-4.7248,-4.7313,-4.7268,-4.7339,-4.7387,-4.7368,-4.7457,-4.7483,-4.7534,-4.7635,-4.7682,-4.7659,-4.7836,-4.7784,-4.7792,-4.7796,-4.7852,-4.7868,-4.7883,-4.7686,-4.7685,-4.7684,0,0,-4.7162,-4.7198,-4.7276,-4.7312,-4.7366,-4.7383,-4.7402,-4.7453,-4.7468,-4.7559,-4.7545,-4.7603,-4.771,-4.7746,-4.7779,-4.7907,-4.7892,-4.7926,-4.7987,-4.8044,-4.8057,-4.807,-4.8113,-4.8129,-4.7937,-4.7937,-4.7937,0,-4.7209,-4.7307,-4.7317,-4.7389,-4.7426,-4.7413,-4.7491,-4.7526,-4.7597,-4.7622,-4.7597,-4.773,-4.7764,-4.7873,-4.7904,-4.7932,-4.7952,-4.7918,-4.8055,-4.8067,-4.8079,-4.812,-4.8137,-4.794,-4.794,-4.794,-4.7939,0,-4.7362,-4.743,-4.7486,-4.7555,-4.7599,-4.7674,-4.7694,-4.7738,-4.7737,-4.7756,-4.7848,-4.7889,-4.7955,-4.7982,-4.7983,-4.8092,-4.8076,-4.8053,-4.8005,-4.8099,-4.8138,-4.8154,-4.7945,-4.7944,-4.7943,-4.7942,0,0,-4.7499,-4.7573,-4.7593,-4.7624,-4.7683,-4.7736,-4.781,-4.7876,-4.7912,-4.7962,-4.8023,-4.8115,-4.8094,-4.8131,-4.8135,-4.8186,-4.8281,-4.8156,-4.8157,-4.8176,-4.8402,-4.8416,-4.8435,-4.8274,-4.8277,-4.8279,-4.8396,0,-4.7615,-4.7745,-4.7756,-4.7874,-4.7936,-4.7925,-4.7989,-4.8033,-4.8053,-4.8108,-4.8131,-4.8194,-4.8163,-4.8185,-4.8235,-4.8259,-4.8326,-4.8251,-4.8329,-4.8331,-4.8313,-4.8455,-4.8471,-4.858,-4.8412,-4.8415,-4.8417,0,-4.7767,-4.7821,-4.7944,-4.7994,-4.8021,-4.8078,-4.8139,-4.8193,-4.8242,-4.8253,-4.8295,-4.8293,-4.8369,-4.8321,-4.8424,-4.8373,-4.8406,-4.8423,-4.8427,-4.8432,-4.8377,-4.8461,-4.8615,-4.863,-4.8441,-4.8439,-4.8437,0,-4.7851,-4.7956,-4.8042,-4.8069,-4.813,-4.8171,-4.8198,-4.8244,-4.8282,-4.8336,-4.8361,-4.8422,-4.8455,-4.8503,-4.8517,-4.8482,-4.862,-4.8574,-4.863,-4.8629,-4.8657,-4.8654,-4.8815,-4.8683,-4.8683,-4.8682,-4.8682,0,-4.7978,-4.8053,-4.8081,-4.8134,-4.8218,-4.823,-4.8313,-4.8338,-4.8379,-4.8436,-4.8431,-4.8485,-4.8502,-4.8559,-4.8571,-4.8654,-4.867,-4.868,-4.8681,-4.8679,-4.8677,-4.8698,-4.8689,-4.8687,-4.8686,-4.8685,-4.8684,0,-4.8085,-4.8108,-4.8201,-4.8251,-4.8266,-4.8325,-4.8368,-4.8419,-4.8439,-4.8511,-4.8529,-4.856,-4.8627,-4.8647,-4.8727,-4.8735,-4.8831,-4.8828,-4.8815,-4.8814,-4.8868,-4.8862,-4.9045,-4.9069,-4.8924,-4.8926,-4.8927,0,-4.8163,-4.822,-4.8277,-4.8315,-4.8344,-4.8406,-4.8445,-4.846,-4.8501,-4.8561,-4.8604,-4.867,-4.8723,-4.883,-4.886,-4.8921,-4.8917,-4.8977,-4.8926,-4.8921,-4.8915,-4.891,-4.8915,-4.8986,-4.8987,-4.8988,-4.8989,0,-4.8298,-4.8306,-4.8363,-4.8424,-4.8471,-4.8519,-4.8566,-4.8598,-4.8619,-4.8666,-4.8734,-4.8775,-4.8857,-4.8922,-4.8984,-4.9012,-4.9004,-4.9006,-4.9022,-4.9018,-4.9007,-4.9011,-4.8838,-4.9001,-4.9,-4.8999,-4.8998,-4.8998,-4.8391,-4.8441,-4.8488,-4.8552,-4.8589,-4.8633,-4.8682,-4.8709,-4.8766,-4.8833,-4.8839,-4.8912,-4.8959,-4.9042,-4.9073,-4.913,-4.9113,-4.9136,-4.9142,-4.9146,-4.915,-4.9,-4.9142,-4.9142,-4.9142,-4.9141,-4.9141,0,-4.8523,-4.8553,-4.8612,-4.8677,-4.8727,-4.8717,-4.8768,-4.881,-4.8874,-4.8919,-4.8972,-4.9049,-4.9113,-4.9148,-4.921,-4.9249,-4.9247,-4.9265,-4.9261,-4.9267,-4.9163,-4.9142,-4.9266,-4.9266,-4.9265,-4.9265,-4.9265,-4.9265,-4.8598,-4.8681,-4.8695,-4.8796,-4.8826,-4.8898,-4.8928,-4.8968,-4.9003,-4.909,-4.9143,-4.9165,-4.9206,-4.9272,-4.9329,-4.9338,-4.936,-4.938,-4.9386,-4.9287,-4.9274,-4.9262,-4.9242,-4.9385,-4.9385,-4.9485,-4.9486,-4.9486]},{"header":{"parameterUnit":"m.s-1","parameterCategory":1,"la1":30.2991,"la2":30.254,"lo1":-89.0895,"lo2":-89.0444,"dy":0.0017,"dx":0.0017,"nx":28,"ny":28,"refTime":"2024-05-12T03:00:00:Z","depth":0,"parameterNumber":3,"parameterNumberName":"V-component_of_WINDS"},"data":[0,0,0,0,0,0,0,0,0,0,0,0,0,0,0,0,0,0,0,0,0,0,0,0,0,0,0,0,0,0,0,0,0,0,0,0,0,0,0,0,0,0,0,0,0,0,0,0,0,0,0,0,0,0,0,0,0,0,4.8292,4.8293,0,4.8341,4.8342,4.8342,4.8265,4.8262,4.826,4.8257,4.8303,4.8307,4.8311,0,0,0,0,0,0,0,0,0,0,0,0,0,4.8129,4.8132,4.8292,4.8293,4.8294,4.8341,4.8342,4.8342,4.8265,4.8262,4.8259,4.8256,4.8302,4.8307,4.8311,0,0,0,0,0,0,0,0,0,0,0,0,0,4.8191,4.8134,4.8292,4.8261,4.8259,4.8341,4.8342,4.8343,4.8266,4.8262,4.8258,4.8254,4.8301,4.8306,4.8312,4.8426,0,0,4.8329,4.8331,0,0,0,0,0,0,0,0,4.8188,4.8197,4.8265,4.8263,4.8261,4.8293,4.8301,4.837,4.8267,4.8263,4.8257,4.8253,4.8303,4.8308,4.8326,4.8428,4.843,4.8329,4.8332,4.8335,4.8336,0,0,0,0,0,0,0,4.8183,4.8195,4.8311,4.8266,4.8264,4.8243,4.8248,4.8314,4.8305,4.8263,4.8258,4.8265,4.8301,4.8321,4.8326,4.843,4.8329,4.8334,4.8337,4.8339,4.8627,4.8632,0,0,0,0,0,0,4.8183,4.8192,4.831,4.8313,4.8214,4.825,4.8255,4.8287,4.8304,4.8303,4.8268,4.8261,4.8313,4.832,4.8328,4.8461,4.8335,4.834,4.8343,4.8623,4.8628,4.8633,0,0,0,0,0,0,4.818,4.8195,4.8308,4.8251,4.8264,4.8257,4.8293,4.829,4.8309,4.8308,4.8305,4.829,4.831,4.832,4.8402,4.8461,4.8342,4.8347,4.8618,4.8625,4.8631,4.8729,0,0,0,0,0,0,4.8176,4.8194,4.8238,4.8252,4.8267,4.8383,4.8297,4.8294,4.832,4.8311,4.8327,4.8326,4.8308,4.8394,4.8407,4.8467,4.8352,4.8613,4.8621,4.8629,4.8721,4.8739,4.8754,0,0,0,0,0,4.817,4.8263,4.8241,4.8255,4.8322,4.8386,4.8394,4.8372,4.8325,4.8368,4.8367,4.8326,4.8454,4.8403,4.8417,4.848,4.8609,4.8619,4.8628,4.8713,4.8735,4.8753,0,0,0,0,0,0,4.8254,4.8264,4.8239,4.834,4.8363,4.8373,4.8427,4.8396,4.8432,4.8422,4.8392,4.8396,4.8484,4.849,4.8434,4.8591,4.8523,4.8536,4.8583,4.8603,4.862,4.8615,4.8356,0,0,0,0,0,4.8284,4.8337,4.8343,4.8431,4.8444,4.8434,4.8461,4.8442,4.8464,4.8473,4.8478,4.85,4.8545,4.8575,4.8616,4.8722,4.8724,4.8772,4.8789,4.8802,4.8813,4.8869,4.889,4.8665,4.8665,4.8665,0,0,4.8347,4.8359,4.8394,4.8448,4.8463,4.8517,4.8442,4.8502,4.8541,4.8482,4.8559,4.8564,4.8587,4.8681,4.8723,4.8689,4.8876,4.8815,4.8826,4.8829,4.8881,4.8902,4.8921,4.8672,4.867,4.8669,0,0,4.8488,4.8504,4.8578,4.8596,4.8621,4.8614,4.8633,4.8648,4.8649,4.8727,4.8683,4.8729,4.8808,4.8825,4.8845,4.8995,4.8958,4.9009,4.9094,4.9149,4.9166,4.9182,4.9234,4.9253,4.9021,4.9021,4.9021,0,4.8562,4.8642,4.862,4.8683,4.8708,4.8659,4.8733,4.8751,4.8788,4.8806,4.8768,4.8866,4.8877,4.8975,4.9012,4.903,4.9048,4.9006,4.9166,4.9181,4.9195,4.9244,4.9264,4.9027,4.9026,4.9026,4.9025,0,4.8731,4.8788,4.8845,4.8883,4.8915,4.8984,4.8971,4.9005,4.8984,4.8981,4.9061,4.9074,4.9117,4.9139,4.9119,4.9234,4.9212,4.9171,4.9102,4.9223,4.9268,4.9287,4.9035,4.9033,4.9032,4.903,0,0,4.8923,4.895,4.8971,4.8988,4.9014,4.9056,4.9123,4.9166,4.9195,4.9224,4.9277,4.9346,4.9308,4.933,4.9312,4.936,4.9477,4.9313,4.9313,4.9341,4.9602,4.9631,4.9654,4.9454,4.9457,4.946,4.96,0,4.9062,4.9178,4.9161,4.9272,4.9323,4.9278,4.9336,4.9357,4.9357,4.9399,4.9398,4.9447,4.9394,4.9407,4.9453,4.9453,4.9528,4.9443,4.9501,4.9504,4.9495,4.9678,4.9709,4.984,4.9618,4.9621,4.9623,0,4.9239,4.9275,4.9392,4.9409,4.943,4.9483,4.9521,4.9563,4.9586,4.9582,4.9609,4.9582,4.9647,4.958,4.9668,4.9611,4.9634,4.9638,4.9642,4.9645,4.9569,4.9683,4.9881,4.99,4.9651,4.9649,4.9647,0,4.9365,4.9443,4.9522,4.9539,4.9562,4.9599,4.9611,4.963,4.9657,4.9691,4.9708,4.9749,4.9771,4.9803,4.9787,4.974,4.9878,4.981,4.9875,4.9876,4.9904,4.9902,5.0107,4.9924,4.9924,4.9923,4.9923,0,4.9521,4.9593,4.9579,4.9628,4.9708,4.9688,4.9767,4.9772,4.9791,4.9839,4.9803,4.9849,4.9827,4.9871,4.986,4.9934,4.9945,4.9942,4.9938,4.9944,4.9944,4.9957,4.9946,4.9928,4.9927,4.9926,4.9925,0,4.9674,4.9668,4.9751,4.9767,4.9773,4.9831,4.9844,4.9889,4.9887,4.9948,4.9961,4.9957,5.0007,4.9996,5.0051,5.0043,5.0136,5.0122,5.0129,5.0124,5.019,5.0183,5.0408,5.0435,5.0237,5.0239,5.024,0,4.9772,4.9827,4.985,4.988,4.9894,4.9944,4.9972,4.9954,4.9985,5.0016,5.0058,5.0105,5.0141,5.0224,5.0225,5.0266,5.0251,5.0327,5.0257,5.0261,5.025,5.0246,5.025,5.034,5.0342,5.0344,5.0346,0,4.9947,4.9942,4.9984,5.0027,5.0062,5.0094,5.0122,5.0149,5.0133,5.017,5.0221,5.025,5.0307,5.0353,5.0392,5.0402,5.0371,5.0368,5.0385,5.0391,5.0392,5.039,5.0164,5.0362,5.0361,5.0359,5.0359,5.0358,5.0074,5.0121,5.0144,5.0193,5.0213,5.024,5.0284,5.0288,5.0331,5.0376,5.0363,5.0422,5.0444,5.0493,5.0508,5.0552,5.0524,5.0549,5.0555,5.0561,5.0568,5.0387,5.056,5.0559,5.0559,5.0558,5.0558,0,5.0245,5.0258,5.0304,5.0345,5.0384,5.0354,5.0384,5.0417,5.047,5.0494,5.0531,5.059,5.0636,5.0642,5.0685,5.0719,5.0706,5.0731,5.0727,5.073,5.0592,5.0572,5.0741,5.0741,5.0741,5.0741,5.0741,5.0741,5.0338,5.0416,5.0413,5.05,5.0512,5.057,5.059,5.0615,5.0634,5.0702,5.074,5.0744,5.0761,5.0805,5.0845,5.0846,5.0862,5.0892,5.0887,5.0758,5.0739,5.0722,5.0703,5.0897,5.0897,5.1021,5.1022,5.1023]}]]